Theta_e
278 279 279 280 280 280 280 280 280 280 280 280 279 280 280 279 279 279 278 278 278 278 278 277 277 277 277 277 276 276 276 275 275 274 274 274 274 273 273 273 272 271 272 271 267 268 269 269 269 269 270 271 271 272 274 279 274 274 275 276 276 277 284
276 277 277 277 277 278 279 279 279 279 279 279 278 278 278 278 278 278 278 278 277 277 277 277 276 276 277 276 276 275 275 275 274 273 273 273 273 274 273 274 273 272 272 272 268 268 268 268 269 271 270 271 271 271 270 271 270 270 273 273 273 274 278
274 275 275 276 276 276 276 277 277 278 277 277 277 277 277 277 277 277 277 276 276 277 277 276 275 275 276 275 274 274 274 274 274 273 272 272 273 273 273 273 273 272 271 271 270 270 269 269 269 270 270 270 271 270 270 270 269 269 268 268 271 272 270
273 273 273 273 273 274 274 275 275 275 275 276 276 276 277 276 276 276 276 276 276 276 276 275 275 275 275 274 274 273 273 273 272 272 272 272 271 272 273 273 273 273 273 272 270 267 269 270 269 268 267 269 268 269 268 270 267 267 267 266 266 267 267
272 271 271 271 271 271 272 272 273 273 273 273 274 274 275 275 275 275 275 275 276 276 275 275 275 275 274 273 273 273 272 272 271 272 271 271 271 271 272 271 272 272 272 271 270 268 267 268 268 267 266 268 268 266 266 266 265 266 267 265 265 265 266
270 270 269 270 270 270 270 271 271 271 271 271 271 272 272 272 273 274 274 274 274 274 274 274 274 274 274 273 273 273 272 272 271 271 271 271 271 271 270 270 270 270 270 270 271 270 265 265 267 265 264 267 268 267 265 263 263 263 263 264 264 264 263
269 269 269 269 269 269 269 269 269 270 270 271 271 270 268 269 271 271 272 272 273 273 273 273 274 273 273 273 273 273 273 272 271 271 271 271 271 270 270 269 269 269 269 269 269 268 267 266 265 265 267 265 267 267 266 266 264 263 262 261 264 265 264
268 268 268 268 268 268 268 268 269 269 270 270 269 268 267 267 267 268 269 269 270 271 271 272 272 272 273 273 273 273 273 272 272 271 271 271 270 270 269 269 269 268 268 268 268 268 267 265 266 263 260 261 264 263 264 264 265 266 265 264 263 263 264
269 268 268 268 268 267 267 267 267 268 270 271 270 267 267 267 267 266 267 267 267 268 269 269 270 271 271 272 273 274 274 274 274 272 271 270 269 269 269 269 268 268 268 267 267 267 265 264 264 265 264 263 263 265 266 267 266 267 265 264 262 262 261
268 268 267 267 267 267 267 267 267 269 273 275 272 269 267 266 266 265 265 266 267 267 267 268 268 270 273 273 274 274 274 274 274 274 273 272 270 270 269 269 268 267 267 267 266 267 266 265 265 265 265 265 265 267 267 266 265 265 264 262 262 261 262
268 268 267 266 266 266 266 266 267 270 275 277 278 274 269 268 266 266 265 265 265 266 268 268 268 267 270 272 273 273 274 274 274 274 274 274 273 272 271 269 268 268 267 267 267 268 266 267 266 266 265 266 267 267 267 268 267 267 265 263 264 263 261
267 267 267 266 265 265 266 266 268 273 274 276 277 277 274 269 268 267 266 265 264 265 266 267 268 268 268 269 270 270 271 272 274 274 274 275 275 274 274 274 272 270 268 268 268 267 267 267 267 267 266 266 268 267 267 268 268 267 265 264 264 265 264
265 265 266 265 265 265 265 264 268 272 274 275 276 277 276 273 269 269 268 266 265 264 265 265 267 268 269 269 272 272 271 270 271 273 274 275 275 275 275 275 276 276 274 272 270 270 269 269 269 268 268 268 268 269 268 267 266 266 266 266 265 264 261
264 264 264 265 265 265 265 264 267 271 274 274 275 276 276 273 270 270 269 267 267 265 266 266 267 268 268 268 269 270 270 270 270 271 271 272 272 273 274 275 275 275 275 275 273 272 270 271 270 270 270 270 271 269 268 267 266 266 265 265 265 265 264
263 264 264 265 265 266 266 266 269 272 273 274 275 275 275 273 271 269 267 266 264 265 266 266 266 267 267 268 268 269 270 269 270 270 270 271 271 271 272 272 273 273 274 274 274 273 272 272 271 271 272 271 271 270 270 270 268 268 266 264 258 257 259
263 263 263 265 266 267 266 266 269 271 273 273 274 275 273 272 271 269 267 267 267 267 267 265 265 266 267 267 267 270 272 273 272 270 270 270 271 271 271 272 274 276 277 275 275 275 274 273 273 274 272 271 270 270 269 266 264 264 262 261 259 260 256
261 262 262 263 263 263 263 264 266 270 272 273 274 273 272 271 270 269 268 268 269 269 268 267 266 266 267 267 267 270 272 274 274 272 271 270 270 271 271 272 273 276 278 279 279 278 278 278 277 277 277 276 275 270 268 265 263 261 262 261 260 258 257
260 261 261 261 261 262 263 263 266 268 270 272 273 272 270 270 270 269 269 270 269 267 268 268 271 270 269 269 268 271 272 275 274 273 273 272 271 270 270 271 271 268 273 277 278 278 278 278 277 276 276 276 276 273 268 266 264 263 263 262 263 259 260
259 259 260 260 261 263 264 265 265 266 268 270 271 270 269 269 268 268 268 269 269 269 268 268 269 270 270 270 271 272 274 275 274 273 273 273 272 271 271 272 270 267 268 270 272 273 275 274 274 274 273 273 273 270 268 268 267 265 263 262 262 260 256
257 257 258 259 261 263 263 262 262 264 266 269 270 271 268 268 266 266 266 268 268 268 267 267 267 270 270 270 270 271 273 274 275 273 273 273 272 272 271 273 268 268 269 269 271 271 272 271 272 272 272 272 271 269 268 267 266 265 265 263 262 261 261
256 256 257 259 261 260 260 260 260 261 265 267 269 270 269 266 265 265 265 266 267 267 267 268 267 266 268 269 269 270 271 273 274 274 273 273 273 273 274 273 267 268 270 269 270 270 270 269 269 269 270 270 270 268 267 266 266 266 266 264 262 260 260
256 255 256 257 257 258 258 259 262 260 263 265 267 268 268 265 263 265 265 265 265 266 266 267 266 263 267 268 269 269 272 273 274 273 273 273 275 276 276 275 271 269 268 268 269 269 269 268 268 268 267 268 267 267 266 266 266 266 266 265 264 263 261
253 254 254 255 256 256 256 258 259 261 262 263 264 266 266 266 265 266 265 263 263 264 265 267 266 266 267 268 269 271 273 273 273 273 273 274 275 275 275 274 271 268 268 268 268 268 267 267 267 266 265 265 264 265 266 265 265 265 265 262 258 258 259
252 253 253 254 255 255 256 257 257 259 262 261 262 263 266 265 265 266 264 264 262 264 265 265 265 266 267 268 269 270 270 271 271 272 273 273 273 274 274 273 269 268 267 267 266 266 266 265 266 266 265 265 265 264 264 262 260 258 257 257 254 253 253
252 253 255 256 255 255 255 257 257 255 259 261 261 262 263 263 264 264 265 263 261 263 264 265 267 267 268 268 268 269 269 270 270 271 272 272 272 273 272 270 268 267 267 266 265 265 265 265 265 265 266 265 263 261 259 256 254 253 252 252 251 250 249
253 254 254 254 254 254 255 256 256 257 257 259 259 260 261 262 263 263 264 264 262 263 264 264 265 266 266 267 267 268 268 268 268 269 270 271 271 270 271 269 268 266 266 265 265 265 264 265 264 263 263 261 261 260 259 258 256 256 253 254 254 252 250
253 252 252 253 253 254 256 255 255 255 255 256 256 257 258 259 260 263 263 260 259 260 259 261 263 264 265 266 267 268 268 267 266 264 263 260 261 265 269 269 267 267 266 265 265 264 264 263 262 261 260 260 261 260 259 259 257 257 254 254 253 254 251
251 251 252 252 255 255 254 254 254 254 255 256 258 259 260 261 261 260 258 258 259 259 261 261 262 262 260 259 260 261 261 262 262 261 261 260 262 263 265 267 268 266 264 264 263 261 260 259 260 260 261 260 260 259 258 257 257 256 254 253 253 251 252
252 254 254 255 254 254 253 254 255 256 260 260 261 261 261 261 261 261 258 260 262 261 260 258 259 257 257 255 256 258 260 260 261 260 260 260 261 261 262 263 263 263 262 262 261 260 260 259 259 258 258 258 257 256 256 255 255 254 254 252 253 255 252
255 255 256 255 255 256 255 255 256 259 260 261 261 262 262 262 263 263 262 261 262 262 257 257 257 257 256 256 254 255 257 258 259 259 259 259 260 260 260 260 260 260 260 260 260 260 259 258 258 256 256 257 257 253 252 254 257 253 254 253 254 253 253
258 258 258 258 255 256 258 258 258 259 259 260 260 261 261 262 262 262 261 261 260 257 255 256 255 256 254 254 253 253 253 255 257 258 257 257 257 256 257 258 258 257 256 257 257 256 257 257 257 256 254 255 255 254 251 250 251 252 254 254 253 252 252
257 258 258 257 257 256 254 256 258 258 259 259 260 260 261 261 262 261 260 260 260 255 254 253 252 252 253 252 253 256 254 254 256 257 256 256 255 255 254 255 256 255 255 254 254 254 253 253 254 253 252 252 252 251 250 250 249 250 251 250 248 251 250
256 257 256 256 256 257 256 256 257 257 258 258 259 259 260 261 260 259 259 259 253 250 252 250 250 250 250 251 251 252 253 254 254 253 254 254 254 254 253 253 254 254 253 252 253 254 253 253 252 252 251 251 251 251 248 248 248 247 248 248 249 248 248
255 255 255 255 255 255 256 256 256 257 257 258 259 259 260 259 257 258 258 256 249 249 249 249 249 250 249 250 250 251 251 252 252 252 252 251 251 252 251 251 251 252 252 251 253 253 252 252 252 251 252 250 249 249 248 249 248 248 248 248 249 249 248
247 252 253 253 253 254 255 255 255 256 256 257 257 258 258 257 249 248 248 250 248 249 248 249 250 250 251 250 250 252 251 252 252 251 251 251 251 249 249 249 250 251 250 251 251 250 250 251 251 250 251 251 249 249 249 249 248 247 249 249 247 248 246
247 245 250 252 253 253 254 254 254 255 255 256 256 256 256 248 245 245 246 247 247 247 249 249 249 249 250 250 250 250 251 252 253 252 252 251 250 251 251 249 248 249 249 249 250 250 250 250 249 250 249 248 249 250 251 250 249 249 248 248 248 247 248
Wind_Speed
2 2 3 4 5 6 6 6 6 6 6 6 7 7 8 7 8 9 8 8 8 7 7 8 9 9 8 6 7 7 7 7 7 7 6 6 6 7 6 7 8 10 11 3 1 2 4 3 3 3 4 5 5 4 5 6 5 5 6 6 6 6 11
6 5 3 2 3 3 4 5 6 6 6 7 7 8 6 7 7 8 8 7 8 8 7 8 9 9 8 7 8 6 7 7 7 7 7 7 7 8 8 8 8 10 8 10 2 4 1 2 3 4 3 7 6 4 4 5 4 3 5 6 5 7 6
8 7 6 5 4 3 3 3 4 4 4 6 7 8 7 7 8 8 8 8 9 8 7 7 8 8 7 5 7 7 7 6 7 6 8 8 7 8 8 8 9 8 9 9 8 5 5 5 5 7 4 4 4 4 4 6 5 5 3 3 5 5 4
9 8 8 8 7 6 5 4 3 3 3 5 6 6 7 7 7 7 8 8 8 7 7 8 7 8 6 7 8 7 7 6 6 7 8 8 8 8 9 8 9 10 9 7 7 3 8 6 6 3 1 3 2 4 3 4 3 2 4 3 3 4 4
9 9 9 8 8 7 7 6 5 5 3 3 3 4 5 6 5 6 7 7 7 7 7 7 8 8 6 7 8 7 6 7 8 8 8 9 7 8 8 6 8 9 8 8 9 5 3 3 3 1 2 5 6 2 2 1 3 3 4 3 1 1 1
8 8 8 8 8 7 7 6 6 6 5 4 3 3 3 4 4 5 5 6 6 7 6 8 8 7 7 7 9 9 8 8 9 8 8 9 8 8 7 8 7 7 8 8 9 6 4 2 6 3 2 5 5 8 4 1 0 1 1 3 3 1 1
8 7 7 7 7 7 7 6 5 6 6 5 4 3 3 3 4 4 4 5 5 6 6 7 7 7 7 9 9 9 9 9 9 8 10 10 10 8 8 8 8 7 8 8 8 6 5 5 4 5 6 3 4 3 4 8 4 4 3 1 5 6 3
7 7 5 6 6 6 6 6 6 6 6 5 4 4 4 3 3 4 4 4 4 4 5 6 6 7 7 8 9 9 9 8 9 8 9 8 7 8 8 9 7 7 8 8 8 8 7 6 7 2 1 2 4 3 2 3 6 10 9 8 6 5 6
7 7 8 6 6 6 6 5 5 5 6 6 5 3 3 3 3 3 4 4 4 4 4 5 5 6 6 8 10 12 11 10 10 9 9 8 8 9 9 9 7 8 8 7 7 8 4 5 5 6 7 6 7 10 13 9 9 8 5 5 4 5 3
6 6 7 7 7 6 5 6 5 8 14 11 6 5 3 2 3 3 3 4 5 5 4 5 4 5 9 10 11 12 13 13 14 14 11 9 9 10 9 9 9 9 8 8 9 10 8 8 10 8 10 11 10 10 4 4 6 9 5 4 4 2 4
7 7 6 6 6 7 6 6 6 14 15 15 14 7 4 2 3 2 1 2 3 4 6 5 5 5 6 7 9 9 12 13 14 14 16 15 13 12 12 10 10 10 9 10 10 9 8 10 11 10 9 10 10 7 10 10 9 9 6 7 8 9 1
9 8 7 6 6 6 7 6 9 17 16 15 15 12 7 3 2 1 1 1 2 3 4 5 6 5 4 5 6 7 7 10 12 14 15 16 16 16 18 17 14 11 9 10 10 9 11 10 11 10 9 10 8 8 8 9 8 8 10 9 9 8 7
8 8 8 7 8 7 7 6 10 16 17 16 16 15 12 5 1 1 2 2 3 3 4 4 4 5 5 5 9 9 7 8 9 12 14 16 17 18 19 19 20 18 13 10 11 12 11 12 11 10 11 12 12 11 11 9 7 8 8 9 9 8 5
8 8 7 8 8 7 6 6 7 15 17 16 16 16 13 5 1 2 2 3 4 3 4 4 4 5 5 5 5 5 7 7 8 9 9 10 10 11 14 17 20 21 21 15 12 12 13 11 10 12 12 13 13 12 12 10 11 9 8 9 10 4 4
9 9 9 9 9 8 6 5 13 18 18 17 17 16 13 6 4 4 4 4 4 4 4 4 5 5 6 6 5 6 6 7 8 8 9 10 11 11 10 10 12 13 13 13 12 12 14 12 10 13 11 9 11 14 13 13 14 14 11 5 5 6 2
9 10 11 10 10 9 9 8 16 18 18 18 17 17 8 6 6 6 5 5 4 4 4 4 4 5 6 6 6 7 11 10 8 8 10 11 11 11 10 11 12 15 15 14 13 13 13 12 11 12 11 9 11 10 5 6 7 7 7 8 6 7 3
8 8 8 10 10 10 9 8 12 17 17 15 16 12 7 6 5 5 5 6 4 4 4 4 4 5 6 6 6 9 12 14 13 8 11 11 11 10 9 10 10 14 18 20 21 21 21 20 17 17 17 17 19 13 10 8 7 7 8 8 8 5 5
9 9 8 10 10 10 9 9 10 14 15 16 16 13 8 8 7 8 6 5 4 4 5 5 8 9 8 9 8 12 15 16 12 10 11 11 12 13 12 11 8 4 7 15 20 23 23 21 18 16 17 19 20 20 15 13 13 11 10 10 9 9 7
8 8 8 9 10 14 12 8 9 15 17 18 17 13 8 7 7 8 8 7 6 4 2 3 6 12 12 9 11 16 17 18 14 11 10 10 11 12 14 12 6 6 7 7 8 9 10 9 11 11 11 12 20 20 15 14 12 10 11 11 8 7 5
6 8 7 8 9 8 8 10 8 10 18 18 18 17 10 7 7 7 9 8 8 7 5 6 5 5 8 14 17 18 19 18 18 13 11 10 10 12 14 9 5 8 9 8 9 9 9 9 7 8 8 9 12 13 13 9 9 11 10 9 8 8 8
6 6 7 7 7 8 8 8 9 9 16 16 16 16 13 5 6 7 8 8 9 8 7 4 2 3 7 12 16 17 19 19 19 18 13 12 11 11 10 7 6 9 11 9 9 8 7 6 6 7 7 8 10 10 9 7 7 9 9 9 8 8 7
7 7 7 7 6 6 7 7 10 8 10 13 15 15 16 9 5 8 8 8 8 8 7 6 4 3 8 14 16 18 19 20 19 20 13 12 18 20 19 13 8 7 7 7 6 6 6 7 7 7 7 8 8 9 9 8 8 7 7 6 8 10 8
7 7 7 7 6 6 6 7 8 10 7 11 16 18 17 16 12 14 9 7 8 8 7 6 6 6 12 15 17 18 20 20 21 17 12 19 20 20 18 14 7 6 7 7 7 6 7 7 7 7 7 8 7 6 8 8 7 6 7 5 3 2 4
6 6 6 7 6 5 5 6 7 7 11 11 15 18 20 18 18 16 10 8 7 7 7 7 7 8 13 15 16 18 19 19 19 14 18 19 19 18 15 9 5 7 7 7 7 7 7 7 7 7 7 8 7 7 6 6 6 5 4 6 4 4 4
6 6 6 6 7 7 6 7 5 4 9 14 15 17 17 17 18 16 16 9 7 7 7 11 15 16 15 15 15 16 16 14 15 17 17 17 17 17 9 6 7 7 7 7 8 8 8 7 8 9 8 6 6 8 8 9 8 8 6 6 6 5 4
5 6 7 7 7 7 8 5 5 8 8 9 9 10 13 16 15 15 14 11 7 11 14 15 14 15 14 13 11 9 7 7 8 12 15 15 15 8 8 5 7 7 8 9 9 8 9 8 6 5 6 8 8 11 9 7 6 6 4 5 5 4 3
6 6 6 7 8 8 6 6 7 8 8 7 7 7 8 8 8 9 8 8 7 7 7 8 8 8 11 11 14 12 10 7 7 6 6 5 5 5 6 6 7 9 9 8 8 7 7 5 6 6 8 7 7 7 5 6 7 6 5 5 4 5 3
6 6 6 7 7 6 7 8 7 7 7 7 6 7 8 6 4 4 4 5 6 7 7 6 7 8 6 6 5 5 3 3 3 4 4 4 4 5 2 1 4 4 3 3 3 5 6 6 6 7 6 6 6 6 6 5 6 6 6 5 5 4 3
7 7 7 7 6 8 9 7 5 4 10 12 15 13 11 9 8 6 5 7 12 10 7 5 7 7 7 6 4 4 4 4 3 4 4 4 5 5 5 4 2 4 4 5 6 6 6 6 5 5 5 5 5 5 5 3 5 4 7 3 3 6 5
8 8 7 7 7 5 6 6 8 15 19 18 18 18 19 18 18 16 11 12 16 10 6 6 5 6 6 6 6 5 4 3 3 3 4 4 5 5 5 5 5 4 4 4 5 6 6 6 5 5 5 5 5 4 4 3 5 5 6 6 6 5 5
15 16 14 10 6 8 14 16 16 17 17 18 18 18 18 18 17 16 12 13 10 6 5 6 6 6 6 6 5 5 5 1 1 2 2 3 4 5 4 4 4 4 3 4 5 5 5 5 6 6 5 6 6 6 5 4 3 5 5 6 6 6 5
14 14 12 14 13 10 7 12 15 16 17 17 18 17 18 17 16 10 11 11 8 5 6 4 5 5 5 5 5 6 5 3 2 2 1 0 1 2 3 2 2 1 4 4 5 5 5 5 5 5 5 5 6 6 6 6 5 5 5 5 3 6 4
12 12 13 14 14 15 13 13 14 16 16 17 16 17 16 17 10 8 8 7 5 2 5 5 6 6 4 5 5 5 4 5 4 3 2 2 2 1 2 1 0 1 3 3 4 4 4 4 5 5 6 5 6 6 5 5 6 4 5 4 5 4 5
9 11 13 13 14 14 13 14 14 15 15 15 15 15 15 9 4 6 7 6 1 2 3 4 5 5 5 5 4 5 5 4 4 2 2 3 3 2 2 2 0 2 2 3 3 5 3 4 5 5 6 5 4 3 4 6 6 6 5 5 6 6 5
4 6 9 10 10 12 13 13 13 14 14 14 14 14 14 8 7 5 5 5 4 3 3 4 4 5 5 5 5 5 4 5 5 4 3 3 1 4 5 3 3 3 3 4 4 4 4 5 5 5 5 6 6 5 4 5 5 5 6 5 5 5 4
6 4 6 12 12 13 13 14 14 14 13 13 13 13 10 5 5 4 5 3 4 3 5 4 4 4 5 6 5 4 5 4 5 4 5 4 3 4 1 2 4 7 5 4 5 5 4 4 4 5 5 4 4 6 7 6 6 5 5 5 5 5 5
Wind_Direction
332 257 217 206 208 213 218 215 219 212 215 220 229 228 227 224 217 222 227 223 225 215 215 219 224 225 221 202 209 213 206 204 198 196 203 194 193 205 199 193 211 227 254 242 201 178 207 200 147 190 189 195 199 202 220 197 199 196 201 206 209 214 226
8 356 333 288 252 238 230 227 222 214 204 210 216 223 220 225 224 227 230 221 230 219 216 218 224 229 222 204 215 210 210 204 197 197 197 200 196 208 204 202 200 232 240 249 144 250 244 196 202 214 178 185 179 199 168 174 184 192 191 192 187 188 190
21 22 23 22 3 329 293 257 246 235 215 218 219 222 223 219 219 223 225 226 230 227 223 222 225 230 221 210 215 216 216 201 206 197 201 208 200 210 210 202 209 216 235 243 238 195 196 202 212 206 194 196 198 175 170 170 182 176 163 168 174 173 181
16 23 27 34 28 22 10 352 323 287 244 230 226 228 231 229 224 226 227 227 230 229 224 226 228 231 219 218 221 220 212 209 205 201 209 211 209 209 211 206 208 216 229 231 239 214 195 205 193 225 136 146 113 149 168 176 143 130 156 154 157 165 174
13 17 21 23 19 15 17 12 3 354 332 301 266 244 243 240 235 231 233 232 232 231 226 227 224 227 212 216 224 226 212 209 208 212 206 213 209 208 213 209 208 219 220 231 233 226 222 185 188 119 158 168 151 127 95 78 154 175 168 150 115 107 174
10 12 8 12 9 11 10 8 11 14 9 356 337 307 277 263 253 248 241 242 238 235 231 231 231 226 213 213 216 224 216 210 215 213 213 214 211 210 207 212 217 213 221 227 238 215 213 180 182 189 210 198 175 156 154 124 78 51 180 157 161 192 205
8 5 7 3 5 6 1 359 5 7 1 355 355 345 319 294 281 266 258 248 245 242 240 238 237 230 217 219 218 221 216 211 214 211 218 214 212 208 203 212 214 208 216 222 232 232 209 194 223 194 199 197 178 186 168 169 162 228 250 225 188 207 225
0 355 2 1 1 356 354 355 360 359 350 342 338 343 337 320 300 293 283 275 264 257 248 245 242 236 230 225 225 220 222 207 216 207 219 216 204 207 203 214 210 208 214 219 225 224 216 202 191 208 45 71 121 164 246 205 179 201 204 211 213 211 181
353 355 358 360 0 355 355 359 351 346 335 324 328 337 336 319 309 296 293 289 281 269 261 257 249 242 238 234 234 227 225 218 213 203 216 214 195 207 204 214 209 209 209 219 219 235 200 188 202 202 166 170 186 194 202 199 196 219 204 181 184 241 217
345 355 352 352 352 356 354 350 343 329 326 332 332 328 326 323 305 295 292 298 304 303 290 271 264 260 250 247 244 240 236 232 226 220 215 209 191 204 202 209 208 207 207 206 214 222 200 202 221 197 194 194 205 203 185 137 182 210 196 127 191 299 238
348 354 345 349 347 347 346 341 332 327 333 332 330 328 318 308 304 295 289 282 285 292 299 300 291 283 278 272 265 258 250 242 238 233 230 225 208 202 197 202 207 214 200 201 216 216 201 215 223 211 197 205 204 191 198 199 193 201 158 178 184 217 278
353 344 343 343 342 338 332 331 324 333 331 328 324 324 318 312 320 333 330 302 287 281 287 290 294 286 278 271 263 260 260 255 250 243 239 235 229 220 216 211 204 207 205 205 213 214 215 210 220 213 185 211 193 198 203 209 196 188 188 189 203 211 201
344 337 340 335 331 326 321 322 317 329 329 326 322 317 317 310 38 13 335 318 304 290 283 284 288 291 279 265 266 263 256 256 259 258 252 246 241 235 229 226 225 222 217 201 209 217 223 210 212 205 210 199 199 195 200 195 191 199 198 201 203 205 175
337 333 330 327 317 309 305 309 298 323 326 324 319 315 310 300 268 283 289 293 284 278 279 273 278 285 286 276 267 255 254 249 246 250 253 252 246 242 240 235 230 230 229 220 213 216 226 222 190 212 211 201 192 186 198 190 202 198 190 200 207 176 156
333 332 327 322 314 306 303 295 322 324 323 324 321 316 311 300 299 296 288 269 253 255 258 258 259 266 272 277 270 261 248 246 246 242 242 244 246 242 239 235 232 229 228 225 224 224 228 227 205 214 216 191 191 194 200 195 198 192 191 150 72 48 64
330 327 327 321 321 326 326 324 320 319 321 322 322 317 310 298 289 288 281 274 264 258 251 248 257 270 277 276 272 269 271 264 249 238 242 243 243 244 240 238 233 228 222 222 223 226 227 227 216 208 208 182 183 189 153 89 78 87 111 135 156 184 191
322 318 319 321 322 317 307 307 309 317 322 324 325 326 313 301 284 276 275 273 269 253 251 258 263 266 275 276 274 275 276 280 275 255 244 244 246 245 243 244 242 237 235 232 230 230 231 229 224 216 206 192 183 172 152 127 126 164 151 146 187 196 161
320 319 319 317 312 305 307 303 314 336 336 330 327 332 333 328 320 301 287 282 271 267 265 258 287 299 291 287 282 289 289 287 281 269 264 256 252 252 250 249 239 198 230 236 239 239 238 236 226 208 199 192 185 167 156 160 183 179 159 184 191 188 194
309 311 314 311 306 308 309 323 340 337 332 327 324 326 326 328 325 320 315 306 293 270 247 284 304 296 294 294 297 299 296 291 287 276 273 269 261 257 255 253 227 191 219 227 228 236 232 228 208 196 188 191 181 163 173 184 178 157 167 180 185 166 117
300 299 302 301 299 309 335 328 321 326 325 325 321 320 320 323 331 325 321 319 309 303 296 282 260 275 308 309 303 299 296 291 284 279 270 260 254 252 255 252 209 206 213 216 214 215 207 198 195 180 179 177 167 168 176 170 158 168 170 175 172 172 176
295 298 296 299 308 315 314 311 313 313 320 325 324 319 317 332 330 318 315 313 311 306 297 291 297 300 303 298 295 293 290 286 282 277 272 266 260 252 256 240 192 221 212 206 215 202 195 178 177 172 172 174 165 169 175 166 166 171 174 163 162 165 183
307 304 301 300 294 289 291 298 301 307 312 324 330 327 324 324 308 314 313 312 304 299 298 291 294 310 297 296 294 294 291 287 283 277 273 268 269 267 261 247 216 205 196 199 203 189 185 176 173 170 168 172 167 169 173 171 172 173 170 174 164 166 170
305 304 302 300 295 286 291 296 299 308 318 329 332 329 324 318 319 318 316 299 293 296 295 300 292 281 288 288 292 294 295 294 292 287 276 272 271 272 273 266 224 191 188 185 187 182 184 182 175 170 174 169 164 163 161 163 166 159 154 149 119 122 157
302 301 297 295 293 299 301 302 299 311 332 329 327 322 319 317 313 312 306 300 289 289 291 293 287 276 277 283 292 297 297 294 292 285 279 276 275 275 278 266 197 190 188 182 178 184 185 184 183 177 176 178 168 161 142 115 98 80 90 108 95 74 66
297 293 298 311 317 312 310 296 301 321 326 323 316 311 309 307 306 306 307 306 295 290 288 290 289 288 289 292 296 300 300 295 292 290 287 284 281 278 270 252 191 196 178 180 186 187 188 185 190 185 180 151 127 108 97 86 58 45 53 69 85 72 73
296 311 317 309 302 304 297 306 332 321 313 304 298 300 298 296 297 304 308 314 310 309 309 306 303 299 296 293 297 303 299 293 295 297 294 289 286 277 270 217 202 187 189 186 192 183 186 189 168 131 122 120 126 128 140 135 128 124 99 110 114 94 50
308 304 298 297 296 290 301 322 314 303 300 298 296 292 288 290 289 308 319 324 313 317 317 309 304 296 296 296 298 301 304 309 315 324 317 329 311 286 253 207 195 193 193 196 188 190 179 137 119 109 112 139 146 143 147 146 144 136 148 127 140 134 167
292 291 289 289 290 303 312 303 297 295 289 294 304 302 296 286 297 313 314 317 308 310 311 308 301 303 300 305 310 307 319 315 329 329 332 331 328 329 323 172 152 92 66 72 89 86 88 103 125 140 145 131 140 146 142 141 137 144 143 146 133 110 192
286 284 282 285 299 304 294 289 291 291 315 314 310 308 308 317 319 318 320 319 328 324 319 324 318 311 315 319 313 313 307 314 333 333 337 346 0 357 0 19 52 116 113 121 114 123 130 132 123 116 118 128 116 123 141 135 114 118 130 150 152 184 168
290 290 296 295 278 270 300 318 316 313 310 307 309 308 308 307 308 311 316 328 331 327 319 311 311 301 298 296 306 304 306 319 334 339 348 349 356 8 27 33 41 59 82 86 107 123 121 131 128 130 138 138 135 107 117 157 154 152 147 147 177 186 206
299 301 297 299 320 325 320 317 316 315 312 310 307 306 305 303 301 307 323 335 334 327 318 303 306 301 306 295 294 291 280 258 307 310 359 347 342 347 17 28 53 43 67 83 102 98 115 131 140 150 154 154 155 150 141 111 96 125 158 165 175 183 203
303 304 313 324 323 321 316 315 315 317 315 312 309 307 305 301 304 328 338 335 346 330 306 312 306 303 300 308 311 291 307 299 272 266 248 148 18 340 343 17 59 28 80 97 101 115 120 135 143 145 159 153 150 142 145 148 143 151 162 170 168 199 196
304 314 321 320 318 316 315 316 317 317 319 318 313 308 301 299 330 344 347 3 16 334 321 322 323 306 295 300 291 295 301 299 291 266 264 229 188 213 265 264 310 67 88 112 134 126 141 149 143 143 142 147 147 144 149 160 165 170 164 168 180 221 211
299 312 316 315 314 315 317 320 321 322 323 323 324 320 311 331 6 351 8 22 339 338 318 313 318 314 309 299 290 288 291 290 288 283 251 230 218 228 195 233 309 96 138 134 142 145 159 148 156 150 146 151 153 158 143 159 174 161 163 185 196 204 213
296 298 303 309 312 310 314 319 322 323 322 325 331 336 341 4 17 8 339 353 345 330 309 314 308 308 309 312 308 300 296 294 296 288 284 279 247 173 183 195 183 183 165 157 151 148 166 172 164 170 164 158 158 152 165 180 174 183 187 188 194 201 210
294 285 296 305 305 305 314 318 322 323 323 325 332 338 360 2 337 348 320 321 307 310 301 304 297 305 306 308 304 300 301 285 292 289 294 278 286 296 277 184 176 169 167 175 168 177 169 157 163 169 163 146 153 176 183 184 188 191 195 194 196 192 200